This is the latest recevied weather packets stored in our database for station/object DG9BJA-13. If no packets are shown the sender has not sent any weather packets the latest 10 day(s).
| Time | Temp. | Humidity | Pressure | Rain* | Wind** | Luminosity | Snow |
|---|---|---|---|---|---|---|---|
| 1777892176 | 19.44° C | 69% | 1013.1 hPa | 0 mm | - | 424 W/m² | - |
| 1777891577 | 19.44° C | 70% | 1013.1 hPa | 0 mm | - | 1039 W/m² | - |
| 1777890976 | 18.89° C | 72% | 1013.2 hPa | 0 mm | - | 1020 W/m² | - |
| 1777890376 | 18.89° C | 71% | 1013.1 hPa | 0 mm | - | 376 W/m² | - |
| 1777889776 | 18.89° C | 71% | 1013.1 hPa | 0 mm | - | 357 W/m² | - |
| 1777889176 | 19.44° C | 71% | 1013.1 hPa | 0 mm | - | 526 W/m² | - |
| 1777888576 | 18.89° C | 72% | 1013.2 hPa | 0 mm | - | 508 W/m² | - |
| 1777887976 | 18.89° C | 72% | 1013.2 hPa | 0 mm | - | 445 W/m² | - |
| 1777887376 | 18.89° C | 74% | 1013.2 hPa | 0 mm | - | 534 W/m² | - |
| 1777886776 | 18.89° C | 73% | 1013.3 hPa | 0 mm | - | 429 W/m² | - |
| 1777886176 | 18.33° C | 75% | 1013.3 hPa | 0 mm | - | 448 W/m² | - |
| 1777885576 | 17.22° C | 78% | 1013.4 hPa | 0 mm | - | 557 W/m² | - |
| 1777884976 | 16.67° C | 79% | 1013.4 hPa | 0 mm | - | 327 W/m² | - |
| 1777884376 | 17.22° C | 79% | 1013.4 hPa | 0 mm | - | 202 W/m² | - |
| 1777883776 | 17.22° C | 78% | 1013.2 hPa | 0 mm | - | 396 W/m² | - |
| 1777883176 | 16.67° C | 81% | 1013.1 hPa | 0 mm | - | 422 W/m² | - |
| 1777882575 | 16.11° C | 82% | 1013.1 hPa | 0 mm | - | 316 W/m² | - |
| 1777881976 | 16.11° C | 82% | 1013.1 hPa | 0 mm | - | 279 W/m² | - |
| 1777881375 | 16.11° C | 83% | 1013.1 hPa | 0 mm | - | 253 W/m² | - |
| 1777880776 | 16.11° C | 83% | 1013.1 hPa | 0 mm | - | 105 W/m² | - |
| 1777880176 | 15.56° C | 83% | 1013 hPa | 0 mm | - | 186 W/m² | - |
| 1777879576 | 15.56° C | 85% | 1013 hPa | 0 mm | - | 156 W/m² | - |
| 1777878975 | 15.56° C | 86% | 1013 hPa | 0 mm | - | 207 W/m² | - |
| 1777878375 | 15.56° C | 86% | 1012.8 hPa | 0 mm | - | 144 W/m² | - |
| 1777877776 | 15° C | 87% | 1012.7 hPa | 0 mm | - | 130 W/m² | - |
* Rain latest hour (hover to see other rain measurements)
** Current wind speed in m/s (hover to see current wind gust speed)